| time (UTC) | temp F | wind direction | speed MPH | gust MPH | rain 1hr in | rain 24hr in | rain mn in | humidity % | barometer mb |
| 20260904034529 | 78 | 266 | 0.0 | 0.0 | 0.00 | 0.19 | 0.19 | 91 | 1012.2 |
| 20260904033007 | 78 | 266 | 0.0 | 0.0 | 0.00 | 0.19 | 0.19 | 91 | 1012.5 |
| 20260904031539 | 78 | 266 | 0.0 | 0.0 | 0.00 | 0.19 | 0.19 | 91 | 1012.6 |
| 20260904030035 | 78 | 266 | 0.0 | 0.0 | 0.00 | 0.19 | 0.19 | 91 | 1012.6 |
| 20260904024559 | 78 | 266 | 0.0 | 0.0 | 0.00 | 0.19 | 0.19 | 91 | 1012.5 |
| 20260904024501 | 78 | 266 | 0.0 | 0.0 | 0.00 | 0.19 | 0.19 | 91 | 1012.4 |
| 20260904023041 | 78 | 266 | 0.0 | 0.0 | 0.00 | 0.19 | 0.19 | 91 | 1012.3 |
| 20260904021520 | 78 | 266 | 0.0 | 0.0 | 0.00 | 0.19 | 0.19 | 91 | 1012.4 |
| 20260904020040 | 78 | 266 | 0.0 | 0.0 | 0.00 | 0.19 | 0.19 | 91 | 1012.5 |
| 20260904014511 | 79 | 266 | 0.0 | 0.0 | 0.00 | 0.19 | 0.19 | 91 | 1012.8 |
| 20260904013049 | 79 | 266 | 0.0 | 0.0 | 0.00 | 0.19 | 0.19 | 90 | 1012.9 |
| 20260904011520 | 79 | 266 | 0.0 | 0.0 | 0.00 | 0.19 | 0.19 | 90 | 1013.1 |
| 20260904010046 | 80 | 266 | 0.0 | 0.0 | 0.00 | 0.19 | 0.19 | 90 | 1013.0 |
| 20260904004557 | 80 | 266 | 0.0 | 0.0 | 0.00 | 0.19 | 0.19 | 89 | 1013.0 |
| 20260904003025 | 80 | 266 | 0.0 | 0.0 | 0.00 | 0.19 | 0.19 | 88 | 1012.8 |
| 20260904001555 | 81 | 266 | 0.0 | 0.0 | 0.00 | 0.19 | 0.19 | 88 | 1012.7 |
| 20260904000100 | 81 | 266 | 0.0 | 0.0 | 0.00 | 0.19 | 0.19 | 87 | 1012.4 |
| 20260903234515 | 81 | 266 | 0.0 | 0.0 | 0.00 | 0.19 | 0.19 | 87 | 1012.2 |
| 20260903233043 | 82 | 266 | 0.0 | 0.0 | 0.00 | 0.19 | 0.19 | 86 | 1012.4 |
| 20260903231522 | 82 | 266 | 0.0 | 0.0 | 0.00 | 0.19 | 0.19 | 85 | 1012.3 |
| 20260903230051 | 83 | 266 | 0.0 | 0.0 | 0.00 | 0.19 | 0.19 | 85 | 1012.4 |
| 20260903224515 | 83 | 266 | 0.0 | 0.0 | 0.00 | 0.19 | 0.19 | 84 | 1012.3 |
| 20260903223053 | 84 | 266 | 0.0 | 0.0 | 0.00 | 0.19 | 0.19 | 83 | 1012.1 |
| 20260903221536 | 84 | 266 | 0.0 | 0.0 | 0.00 | 0.19 | 0.19 | 81 | 1012.1 |
| 20260903220034 | 84 | 266 | 0.0 | 0.0 | 0.00 | 0.19 | 0.19 | 82 | 1012.2 |
| 20260903214524 | 85 | 266 | 0.0 | 0.0 | 0.00 | 0.19 | 0.19 | 81 | 1012.3 |
| 20260903213055 | 85 | 266 | 0.0 | 0.0 | 0.00 | 0.19 | 0.19 | 79 | 1012.1 |
| 20260903211535 | 85 | 266 | 0.0 | 0.0 | 0.00 | 0.19 | 0.19 | 76 | 1012.3 |
| 20260903210009 | 86 | 266 | 0.0 | 0.0 | 0.00 | 0.20 | 0.19 | 78 | 1012.3 |
| 20260903204507 | 86 | 266 | 0.0 | 0.0 | 0.00 | 0.20 | 0.19 | 78 | 1012.6 |
| 20260903191511 | 85 | 266 | 0.0 | 0.0 | 0.00 | 0.20 | 0.19 | 78 | 1013.4 |
| 20260903190046 | 84 | 262 | 0.0 | 0.0 | 0.00 | 0.20 | 0.19 | 81 | 1013.4 |
| 20260903184523 | 84 | 262 | 0.0 | 0.0 | 0.00 | 0.20 | 0.19 | 82 | 1013.6 |
| 20260903183003 | 84 | 262 | 0.0 | 0.0 | 0.00 | 0.20 | 0.19 | 81 | 1013.9 |
| 20260903181611 | 84 | 261 | 0.0 | 0.0 | 0.00 | 0.20 | 0.19 | 82 | 1014.1 |
| 20260903180053 | 84 | 261 | 0.0 | 0.0 | 0.00 | 0.20 | 0.19 | 82 | 1014.2 |
| 20260903123029 | 75 | 115 | 0.0 | 0.0 | 0.00 | 0.20 | 0.19 | 93 | 1017.2 |
| 20260903121552 | 75 | 114 | 0.0 | 0.0 | 0.00 | 0.20 | 0.19 | 93 | 1017.3 |
| 20260903120041 | 74 | 114 | 0.0 | 0.0 | 0.00 | 0.20 | 0.19 | 93 | 1017.2 |
| 20260903114551 | 74 | 114 | 0.0 | 0.0 | 0.00 | 0.20 | 0.19 | 93 | 1017.1 |
| 20260903113037 | 74 | 114 | 0.0 | 0.0 | 0.00 | 0.20 | 0.19 | 93 | 1017.1 |
| 20260903111547 | 74 | 114 | 0.0 | 0.0 | 0.00 | 0.20 | 0.19 | 93 | 1016.6 |
| 20260903110014 | 74 | 121 | 0.0 | 0.0 | 0.00 | 0.20 | 0.19 | 93 | 1016.6 |
| 20260903104538 | 74 | 120 | 0.0 | 0.0 | 0.00 | 0.20 | 0.19 | 93 | 1016.5 |
| 20260903103015 | 74 | 120 | 0.0 | 0.0 | 0.00 | 0.20 | 0.19 | 93 | 1016.6 |
| 20260903101539 | 74 | 120 | 0.0 | 0.0 | 0.00 | 0.20 | 0.19 | 93 | 1016.2 |
| 20260903100002 | 74 | 120 | 0.0 | 0.0 | 0.00 | 0.20 | 0.19 | 92 | 1016.0 |
| 20260903094544 | 74 | 120 | 0.0 | 0.0 | 0.01 | 0.20 | 0.19 | 92 | 1016.0 |
| 20260903093007 | 74 | 120 | 0.0 | 0.0 | 0.03 | 0.20 | 0.19 | 92 | 1015.9 |
| 20260903091529 | 74 | 120 | 0.0 | 0.0 | 0.03 | 0.20 | 0.19 | 92 | 1015.8 |
| 20260903090024 | 74 | 120 | 0.0 | 0.0 | 0.19 | 0.20 | 0.19 | 92 | 1015.7 |
| 20260903084536 | 74 | 120 | 0.0 | 0.0 | 0.18 | 0.19 | 0.18 | 92 | 1015.7 |
| 20260903083050 | 74 | 120 | 0.0 | 0.0 | 0.16 | 0.17 | 0.16 | 92 | 1016.4 |
| 20260903081540 | 74 | 120 | 0.0 | 0.0 | 0.16 | 0.17 | 0.16 | 91 | 1016.3 |
| 20260903080107 | 74 | 118 | 0.0 | 0.0 | 0.00 | 0.01 | 0.00 | 91 | 1016.6 |
| 20260903074557 | 74 | 112 | 0.0 | 0.0 | 0.00 | 0.01 | 0.00 | 91 | 1016.3 |
| 20260903073003 | 74 | 112 | 0.0 | 0.0 | 0.00 | 0.01 | 0.00 | 91 | 1015.5 |
| 20260903071535 | 74 | 112 | 0.0 | 0.0 | 0.00 | 0.01 | 0.00 | 91 | 1015.3 |
| 20260903070049 | 74 | 112 | 0.0 | 0.0 | 0.00 | 0.01 | 0.00 | 91 | 1015.1 |
| 20260903064535 | 74 | 112 | 0.0 | 0.0 | 0.00 | 0.01 | 0.00 | 91 | 1015.2 |
| 20260903063049 | 74 | 112 | 0.0 | 0.0 | 0.00 | 0.01 | 0.00 | 91 | 1014.9 |
| 20260903061543 | 74 | 112 | 0.0 | 0.0 | 0.00 | 0.01 | 0.00 | 91 | 1015.3 |
| 20260903060015 | 74 | 112 | 0.0 | 0.0 | 0.00 | 0.76 | 0.00 | 91 | 1015.5 |
| 20260903054537 | 74 | 112 | 0.0 | 0.0 | 0.00 | 0.76 | 0.00 | 91 | 1015.7 |
| 20260903053003 | 74 | 112 | 0.0 | 0.0 | 0.00 | 0.76 | 0.00 | 92 | 1016.2 |
| 20260903051541 | 74 | 112 | 0.0 | 0.0 | 0.00 | 0.76 | 0.00 | 92 | 1016.3 |
| 20260903050023 | 74 | 112 | 0.0 | 0.0 | 0.00 | 0.99 | 0.00 | 92 | 1016.2 |
| 20260903044533 | 74 | 112 | 0.0 | 0.0 | 0.00 | 0.99 | 0.00 | 92 | 1016.0 |
| 20260903043051 | 75 | 112 | 0.0 | 0.0 | 0.00 | 0.99 | 0.00 | 92 | 1016.4 |
| 20260903041540 | 75 | 119 | 0.0 | 0.0 | 0.00 | 0.99 | 0.00 | 92 | 1016.5 |
| 20260903040047 | 75 | 119 | 0.0 | 0.0 | 0.00 | 1.27 | 0.00 | 92 | 1016.4 |